When you browse on this site, cookies collect data to enhance your experience and personalize the content and advertising you see.
Visit our Privacy Policy to learn more. By continuing to use the site, you agree to this use of cookies and data.
  • în România
  • Lista ţărilor
  • Pe 7 zile
  • Temperatura apei
  • Meteo pe hartă
  • Widget-uri
  • user-avatar
    Intrare

    Meteo pe oră la Lewis

    Astăzi, 26 Ianuarie, Duminică

    Timp Temperatura Precipitaţii Vânt Presiune Umiditate
    00:00 +4°C° 0.9 mm 13 m/s 736 mmHg 88%
    01:00 +4°C° 0.8 mm 13 m/s 735 mmHg 88%
    02:00 +4°C° 0.8 mm 13 m/s 734 mmHg 87%
    03:00 +4°C° 0.8 mm 13 m/s 733 mmHg 87%
    04:00 +4°C° 0.8 mm 13 m/s 733 mmHg 88%
    05:00 +4°C° 0.8 mm 12 m/s 733 mmHg 88%
    06:00 +5°C° 0 mm 12 m/s 732 mmHg 89%
    07:00 +4°C° 0.6 mm 12 m/s 733 mmHg 83%
    08:00 +3°C° 0.6 mm 11 m/s 733 mmHg 77%
    09:00 +2°C° 0.6 mm 11 m/s 734 mmHg 71%
    10:00 +2°C° 0.1 mm 11 m/s 734 mmHg 69%
    11:00 +2°C° 0.1 mm 10 m/s 734 mmHg 68%
    12:00 +2°C° 0.1 mm 10 m/s 735 mmHg 66%
    13:00 +1°C° 0.1 mm 10 m/s 735 mmHg 65%
    14:00 +1°C° 0.1 mm 9 m/s 735 mmHg 64%
    15:00 +1°C° 0.1 mm 9 m/s 735 mmHg 63%
    16:00 0°C° 0.1 mm 9 m/s 735 mmHg 65%
    17:00 0°C° 0.1 mm 9 m/s 735 mmHg 66%
    18:00 -1°C° 0.1 mm 9 m/s 735 mmHg 68%
    19:00 -1°C° 0 mm 9 m/s 734 mmHg 68%
    20:00 -1°C° 0 mm 8 m/s 734 mmHg 68%
    21:00 -1°C° 0 mm 8 m/s 734 mmHg 68%
    22:00 -1°C° 0.1 mm 9 m/s 733 mmHg 70%
    23:00 0°C° 0.1 mm 9 m/s 732 mmHg 72%

    Mâine, 27 Ianuarie, Luni

    Timp Temperatura Precipitaţii Vânt Presiune Umiditate
    00:00 0°C° 0.1 mm 10 m/s 731 mmHg 73%
    01:00 -1°C° 1 mm 11 m/s 731 mmHg 73%
    02:00 -1°C° 1 mm 12 m/s 730 mmHg 74%
    03:00 -1°C° 1 mm 13 m/s 729 mmHg 74%
    04:00 0°C° 0.5 mm 10 m/s 729 mmHg 77%
    05:00 -1°C° 0.5 mm 8 m/s 729 mmHg 80%
    06:00 -1°C° 0.5 mm 6 m/s 729 mmHg 84%
    07:00 -1°C° 0.4 mm 6 m/s 729 mmHg 83%
    08:00 -1°C° 0.4 mm 6 m/s 729 mmHg 82%
    09:00 -2°C° 0.4 mm 6 m/s 729 mmHg 81%
    10:00 -1°C° 0.1 mm 6 m/s 728 mmHg 78%
    11:00 -1°C° 0.1 mm 6 m/s 728 mmHg 75%
    12:00 +1°C° 0.1 mm 6 m/s 728 mmHg 73%
    13:00 +1°C° 0.1 mm 6 m/s 727 mmHg 73%
    14:00 +1°C° 0.1 mm 6 m/s 727 mmHg 74%
    15:00 +1°C° 0.1 mm 6 m/s 727 mmHg 74%
    16:00 -1°C° 0.1 mm 6 m/s 726 mmHg 76%
    17:00 0°C° 0.1 mm 5 m/s 726 mmHg 79%
    18:00 -1°C° 0.1 mm 5 m/s 726 mmHg 81%
    19:00 -2°C° 0.4 mm 6 m/s 726 mmHg 81%
    20:00 -2°C° 0.4 mm 6 m/s 726 mmHg 81%
    21:00 -1°C° 0.4 mm 7 m/s 726 mmHg 81%
    22:00 -1°C° 0.3 mm 8 m/s 726 mmHg 80%
    23:00 -1°C° 0.3 mm 9 m/s 726 mmHg 79%

    Poimâine, 28 Ianuarie, Marţi

    Timp Temperatura Precipitaţii Vânt Presiune Umiditate
    00:00 -1°C° 0.3 mm 9 m/s 726 mmHg 78%
    01:00 -1°C° 0.3 mm 9 m/s 726 mmHg 77%
    02:00 -1°C° 0.3 mm 8 m/s 726 mmHg 76%
    03:00 -2°C° 0.3 mm 8 m/s 726 mmHg 75%
    04:00 -2°C° 0 mm 7 m/s 726 mmHg 75%
    05:00 -2°C° 0 mm 7 m/s 726 mmHg 75%
    06:00 -2°C° 0 mm 7 m/s 726 mmHg 75%
    07:00 -2°C° 0 mm 7 m/s 726 mmHg 76%
    08:00 -2°C° 0 mm 8 m/s 726 mmHg 77%
    09:00 -1°C° 0 mm 8 m/s 726 mmHg 78%
    10:00 -1°C° 0.1 mm 8 m/s 726 mmHg 81%
    11:00 0°C° 0.1 mm 8 m/s 726 mmHg 84%
    12:00 0°C° 0.1 mm 8 m/s 726 mmHg 87%
    13:00 +1°C° 0.3 mm 9 m/s 727 mmHg 82%
    14:00 +1°C° 0.3 mm 9 m/s 727 mmHg 77%
    15:00 +2°C° 0.3 mm 10 m/s 727 mmHg 72%
    16:00 +2°C° 0.2 mm 10 m/s 728 mmHg 72%
    17:00 +1°C° 0.2 mm 11 m/s 728 mmHg 73%
    18:00 +1°C° 0.2 mm 11 m/s 729 mmHg 73%
    19:00 +1°C° 0.3 mm 11 m/s 729 mmHg 72%
    20:00 +1°C° 0.3 mm 11 m/s 729 mmHg 72%
    21:00 +1°C° 0.3 mm 11 m/s 729 mmHg 72%
    22:00 0°C° 0.3 mm 12 m/s 729 mmHg 72%
    23:00 +1°C° 0.3 mm 13 m/s 729 mmHg 72%

    29 Ianuarie, Miercuri

    Timp Temperatura Precipitaţii Vânt Presiune Umiditate
    00:00 +1°C° 0.3 mm 14 m/s 729 mmHg 72%
    01:00 +1°C° 0.1 mm 13 m/s 730 mmHg 72%
    02:00 +1°C° 0.1 mm 13 m/s 731 mmHg 71%
    03:00 +2°C° 0.1 mm 12 m/s 731 mmHg 71%
    04:00 +2°C° 0 mm 11 m/s 732 mmHg 70%
    05:00 +1°C° 0 mm 10 m/s 733 mmHg 70%
    06:00 +1°C° 0 mm 9 m/s 734 mmHg 69%
    07:00 +1°C° 0 mm 8 m/s 735 mmHg 72%
    08:00 +1°C° 0 mm 8 m/s 736 mmHg 74%
    09:00 +2°C° 0 mm 7 m/s 737 mmHg 77%
    10:00 +2°C° 0.1 mm 7 m/s 737 mmHg 77%
    11:00 +3°C° 0.1 mm 7 m/s 738 mmHg 77%
    12:00 +3°C° 0.1 mm 7 m/s 739 mmHg 77%
    13:00 +3°C° 0.1 mm 7 m/s 738 mmHg 77%
    14:00 +2°C° 0.1 mm 8 m/s 738 mmHg 76%
    15:00 +2°C° 0.1 mm 8 m/s 738 mmHg 75%
    16:00 +2°C° 1.2 mm 8 m/s 738 mmHg 82%
    17:00 +1°C° 1.2 mm 8 m/s 737 mmHg 88%
    18:00 +2°C° 1.2 mm 7 m/s 736 mmHg 95%
    19:00 +3°C° 0.4 mm 9 m/s 736 mmHg 91%
    20:00 +5°C° 0.4 mm 10 m/s 736 mmHg 88%
    21:00 +6°C° 0.4 mm 11 m/s 736 mmHg 84%
    22:00 +6°C° 0.1 mm 11 m/s 736 mmHg 83%
    23:00 +6°C° 0.1 mm 10 m/s 737 mmHg 82%

    30 Ianuarie, Joi

    Timp Temperatura Precipitaţii Vânt Presiune Umiditate
    00:00 +6°C° 0.1 mm 10 m/s 737 mmHg 82%
    01:00 +6°C° 0.3 mm 9 m/s 737 mmHg 85%
    02:00 +6°C° 0.3 mm 8 m/s 738 mmHg 88%
    03:00 +6°C° 0.3 mm 8 m/s 738 mmHg 91%
    04:00 +6°C° 0.5 mm 8 m/s 738 mmHg 88%
    05:00 +6°C° 0.5 mm 8 m/s 738 mmHg 86%
    06:00 +6°C° 0.5 mm 8 m/s 738 mmHg 84%
    07:00 +5°C° 0 mm 8 m/s 738 mmHg 85%
    08:00 +5°C° 0 mm 8 m/s 738 mmHg 86%
    09:00 +5°C° 0 mm 8 m/s 737 mmHg 87%
    10:00 +5°C° 0.1 mm 9 m/s 737 mmHg 86%
    11:00 +5°C° 0.1 mm 10 m/s 736 mmHg 85%
    12:00 +4°C° 0.1 mm 11 m/s 736 mmHg 84%
    13:00 +4°C° 0.3 mm 12 m/s 735 mmHg 86%
    14:00 +4°C° 0.3 mm 12 m/s 735 mmHg 87%
    15:00 +4°C° 0.3 mm 13 m/s 734 mmHg 88%
    16:00 +5°C° 0.2 mm 12 m/s 734 mmHg 86%
    17:00 +6°C° 0.2 mm 11 m/s 734 mmHg 84%
    18:00 +6°C° 0.2 mm 10 m/s 734 mmHg 83%
    19:00 +6°C° 0 mm 10 m/s 735 mmHg 83%
    20:00 +6°C° 0 mm 10 m/s 735 mmHg 84%
    21:00 +6°C° 0 mm 9 m/s 735 mmHg 84%
    22:00 +6°C° 0 mm 9 m/s 735 mmHg 85%
    23:00 +5°C° 0 mm 8 m/s 735 mmHg 86%

    31 Ianuarie, Vineri

    Timp Temperatura Precipitaţii Vânt Presiune Umiditate
    00:00 +5°C° 0 mm 8 m/s 735 mmHg 87%
    01:00 +5°C° 0 mm 9 m/s 735 mmHg 86%
    02:00 +6°C° 0 mm 10 m/s 734 mmHg 85%
    03:00 +6°C° 0 mm 10 m/s 734 mmHg 84%
    04:00 +6°C° 1 mm 11 m/s 733 mmHg 87%
    05:00 +7°C° 1 mm 12 m/s 732 mmHg 89%
    06:00 +7°C° 1 mm 12 m/s 731 mmHg 92%
    07:00 +7°C° 0.2 mm 12 m/s 731 mmHg 91%
    08:00 +8°C° 0.2 mm 12 m/s 731 mmHg 91%
    09:00 +8°C° 0.2 mm 12 m/s 730 mmHg 91%
    10:00 +8°C° 0.1 mm 12 m/s 730 mmHg 88%
    11:00 +8°C° 0.1 mm 12 m/s 730 mmHg 84%
    12:00 +8°C° 0.1 mm 12 m/s 730 mmHg 81%
    13:00 +7°C° 0.3 mm 13 m/s 729 mmHg 79%
    14:00 +6°C° 0.3 mm 14 m/s 727 mmHg 76%
    15:00 +6°C° 0.3 mm 15 m/s 726 mmHg 74%
    16:00 +6°C° 0.6 mm 15 m/s 725 mmHg 77%
    17:00 +6°C° 0.6 mm 16 m/s 724 mmHg 80%
    18:00 +6°C° 0.6 mm 16 m/s 724 mmHg 83%
    19:00 +6°C° 0.3 mm 15 m/s 725 mmHg 78%
    20:00 +5°C° 0.3 mm 15 m/s 727 mmHg 73%
    21:00 +5°C° 0.3 mm 14 m/s 729 mmHg 67%
    22:00 +4°C° 0.1 mm 14 m/s 730 mmHg 68%
    23:00 +3°C° 0.1 mm 14 m/s 732 mmHg 70%
    Arată mai mult